User: anonymous
Location: Springfield
(37.2150°N, 93.2980°W)
Time: 21:15:32
(UTC-05:00)
Language:

Iridium 62 - Orbit

View from above orbital plane
View from above orbital plane
View from above satellite
View from above satellite

Ground track
Ground track

The orbit data is extracted from the following two-line orbital elements,

1 25285U 98021A   14106.26555669  .00000338  00000-0  11380-3 0  7402
2 25285 086.3981 347.9257 0002088 104.2697 255.8731 14.34211365839059
Epoch (UTC): 16 April 2014 06:22:24
Eccentricity: 0.0002088
inclination: 86.3981°
perigee height: 776 km
apogee height: 779 km
right ascension of ascending node: 347.9257°
argument of perigee: 104.2697°
revolutions per day: 14.34211365
mean anomaly at epoch: 255.8731°
orbit number at epoch: 83905

The dashed part of the orbit path shows where the satellite is in the earth's shadow,  

DLR